When you browse on this site, cookies collect data to enhance your experience and personalize the content and advertising you see.
Visit our Privacy Policy to learn more. By continuing to use the site, you agree to this use of cookies and data.
  • In Hungary
  • List of Countries
  • For 7 days
  • Water Temperature
  • Satellite Maps
  • Weather Map
  • News
  • Weather Widgets
  • user-avatar
    Login

    Hourly Weather Boldyrevo

    Today, 22 January, Tuesday

    Time Temperature Precipitation Wind Pressure Humidity
    00:00 -13°C° 0.4 mm 7 mps 756 mmHg 90%
    01:00 -13°C° 0.4 mm 8 mps 755 mmHg 92%
    02:00 -12°C° 0.8 mm 8 mps 754 mmHg 92%
    03:00 -11°C° 0.8 mm 8 mps 753 mmHg 93%
    04:00 -12°C° 0 mm 10 mps 753 mmHg 94%
    05:00 -10°C° 0.8 mm 9 mps 752 mmHg 94%
    06:00 -8°C° 0.8 mm 8 mps 752 mmHg 94%
    07:00 -7°C° 0.8 mm 7 mps 751 mmHg 93%
    08:00 -7°C° 0.7 mm 7 mps 752 mmHg 94%
    09:00 -5°C° 0.7 mm 6 mps 752 mmHg 94%
    10:00 -5°C° 0 mm 5 mps 752 mmHg 94%
    11:00 -7°C° 0.2 mm 5 mps 752 mmHg 93%
    12:00 -8°C° 0.2 mm 5 mps 752 mmHg 91%
    13:00 -11°C° 0.2 mm 5 mps 753 mmHg 90%
    14:00 -11°C° 0 mm 4 mps 753 mmHg 91%
    15:00 -14°C° 0 mm 4 mps 754 mmHg 92%
    16:00 -15°C° 0 mm 3 mps 754 mmHg 92%
    17:00 -16°C° 0 mm 3 mps 755 mmHg 93%
    18:00 -18°C° 0 mm 3 mps 756 mmHg 94%
    19:00 -19°C° 0 mm 3 mps 757 mmHg 95%
    20:00 -21°C° 0 mm 3 mps 757 mmHg 96%
    21:00 -19°C° 0 mm 2 mps 757 mmHg 97%
    22:00 -20°C° 0 mm 2 mps 758 mmHg 97%
    23:00 -20°C° 0 mm 2 mps 758 mmHg 98%

    Tomorrow, 23 January, Wednesday

    Time Temperature Precipitation Wind Pressure Humidity
    00:00 -21°C° 0 mm 2 mps 758 mmHg 98%
    01:00 -21°C° 0 mm 2 mps 759 mmHg 99%
    02:00 -21°C° 0 mm 2 mps 759 mmHg 99%
    03:00 -21°C° 0 mm 2 mps 759 mmHg 99%
    04:00 -20°C° 0 mm 1 mps 760 mmHg 99%
    05:00 -20°C° 0 mm 1 mps 760 mmHg 99%
    06:00 -20°C° 0 mm 1 mps 760 mmHg 99%
    07:00 -20°C° 0 mm 1 mps 761 mmHg 99%
    08:00 -20°C° 0 mm 1 mps 761 mmHg 99%
    09:00 -20°C° 0 mm 1 mps 761 mmHg 98%
    10:00 -20°C° 0 mm 1 mps 762 mmHg 98%
    11:00 -19°C° 0 mm 1 mps 762 mmHg 96%
    12:00 -18°C° 0 mm 1 mps 762 mmHg 95%
    13:00 -19°C° 0 mm 2 mps 763 mmHg 93%
    14:00 -20°C° 0 mm 2 mps 763 mmHg 94%
    15:00 -18°C° 0 mm 1 mps 763 mmHg 94%
    16:00 -19°C° 0 mm 1 mps 764 mmHg 94%
    17:00 -20°C° 0 mm 1 mps 764 mmHg 95%
    18:00 -21°C° 0 mm 1 mps 764 mmHg 95%
    19:00 -23°C° 0 mm 1 mps 765 mmHg 95%
    20:00 -23°C° 0 mm 1 mps 765 mmHg 95%
    21:00 -23°C° 0 mm 1 mps 766 mmHg 95%
    22:00 -24°C° 0 mm 1 mps 766 mmHg 95%
    23:00 -24°C° 0 mm 1 mps 766 mmHg 95%

    Day after tomorrow, 24 January, Thursday

    Time Temperature Precipitation Wind Pressure Humidity
    00:00 -24°C° 0 mm 0 mps 767 mmHg 95%
    01:00 -25°C° 0 mm 0 mps 767 mmHg 95%
    02:00 -25°C° 0 mm 0 mps 767 mmHg 94%
    03:00 -25°C° 0 mm 0 mps 768 mmHg 94%
    04:00 -25°C° 0 mm 0 mps 768 mmHg 93%
    05:00 -25°C° 0 mm 0 mps 768 mmHg 93%
    06:00 -25°C° 0 mm 1 mps 768 mmHg 92%
    07:00 -25°C° 0 mm 1 mps 769 mmHg 92%
    08:00 -24°C° 0 mm 1 mps 769 mmHg 92%
    09:00 -26°C° 0 mm 2 mps 769 mmHg 92%
    10:00 -26°C° 0 mm 2 mps 769 mmHg 92%
    11:00 -24°C° 0 mm 2 mps 769 mmHg 91%
    12:00 -24°C° 0 mm 3 mps 769 mmHg 90%
    13:00 -22°C° 0 mm 3 mps 769 mmHg 90%
    14:00 -22°C° 0 mm 3 mps 768 mmHg 89%
    15:00 -22°C° 0 mm 4 mps 768 mmHg 89%
    16:00 -22°C° 0 mm 4 mps 768 mmHg 88%
    17:00 -20°C° 0 mm 4 mps 767 mmHg 88%
    18:00 -21°C° 0 mm 5 mps 767 mmHg 87%
    19:00 -20°C° 0 mm 5 mps 767 mmHg 86%
    20:00 -20°C° 0.1 mm 5 mps 766 mmHg 87%
    21:00 -19°C° 0.1 mm 5 mps 766 mmHg 88%
    22:00 -18°C° 0.1 mm 5 mps 765 mmHg 89%
    23:00 -18°C° 0.3 mm 5 mps 765 mmHg 89%

    25 January, Friday

    Time Temperature Precipitation Wind Pressure Humidity
    00:00 -17°C° 0.3 mm 5 mps 764 mmHg 89%
    01:00 -17°C° 0.3 mm 6 mps 764 mmHg 88%
    02:00 -16°C° 0.2 mm 6 mps 763 mmHg 88%
    03:00 -16°C° 0.2 mm 6 mps 763 mmHg 88%
    04:00 -16°C° 0.2 mm 6 mps 762 mmHg 88%
    05:00 -16°C° 0.7 mm 6 mps 762 mmHg 90%
    06:00 -16°C° 0.7 mm 6 mps 762 mmHg 93%
    07:00 -15°C° 0.7 mm 5 mps 761 mmHg 95%
    08:00 -15°C° 0.5 mm 5 mps 761 mmHg 95%
    09:00 -15°C° 0.5 mm 5 mps 761 mmHg 95%
    10:00 -15°C° 0.5 mm 4 mps 761 mmHg 95%
    11:00 -14°C° 0.4 mm 4 mps 761 mmHg 95%
    12:00 -14°C° 0.4 mm 4 mps 761 mmHg 95%
    13:00 -13°C° 0.4 mm 3 mps 761 mmHg 95%
    14:00 -12°C° 0.4 mm 3 mps 761 mmHg 95%
    15:00 -10°C° 0.4 mm 2 mps 761 mmHg 95%
    16:00 -9°C° 0.4 mm 1 mps 761 mmHg 96%
    17:00 -9°C° 0.4 mm 1 mps 761 mmHg 96%
    18:00 -9°C° 0.4 mm 1 mps 761 mmHg 96%
    19:00 -9°C° 0.4 mm 0 mps 761 mmHg 97%
    20:00 -9°C° 0.2 mm 1 mps 761 mmHg 97%
    21:00 -9°C° 0.2 mm 1 mps 762 mmHg 96%
    22:00 -9°C° 0.2 mm 1 mps 762 mmHg 96%
    23:00 -10°C° 0.1 mm 2 mps 762 mmHg 96%

    26 January, Saturday

    Time Temperature Precipitation Wind Pressure Humidity
    00:00 -12°C° 0.1 mm 2 mps 762 mmHg 95%
    01:00 -12°C° 0.1 mm 2 mps 761 mmHg 95%
    02:00 -13°C° 0 mm 3 mps 762 mmHg 94%
    03:00 -13°C° 0 mm 3 mps 762 mmHg 94%
    04:00 -13°C° 0 mm 3 mps 762 mmHg 93%
    05:00 -14°C° 0 mm 3 mps 762 mmHg 93%
    06:00 -15°C° 0 mm 4 mps 762 mmHg 93%
    07:00 -16°C° 0 mm 4 mps 762 mmHg 92%
    08:00 -17°C° 0 mm 4 mps 762 mmHg 92%
    09:00 -17°C° 0 mm 4 mps 762 mmHg 92%
    10:00 -18°C° 0 mm 4 mps 763 mmHg 91%
    11:00 -19°C° 0 mm 5 mps 763 mmHg 90%
    12:00 -18°C° 0 mm 5 mps 762 mmHg 89%
    13:00 -18°C° 0 mm 5 mps 762 mmHg 88%
    14:00 -18°C° 0 mm 5 mps 762 mmHg 86%
    15:00 -18°C° 0 mm 5 mps 762 mmHg 85%
    16:00 -19°C° 0 mm 5 mps 762 mmHg 84%
    17:00 -19°C° 0 mm 5 mps 762 mmHg 81%
    18:00 -21°C° 0 mm 6 mps 762 mmHg 79%
    19:00 -22°C° 0 mm 6 mps 762 mmHg 77%
    20:00 -22°C° 0 mm 6 mps 762 mmHg 76%
    21:00 -21°C° 0 mm 6 mps 761 mmHg 75%
    22:00 -21°C° 0 mm 6 mps 761 mmHg 74%
    23:00 -21°C° 0 mm 6 mps 761 mmHg 75%

    27 January, Sunday

    Time Temperature Precipitation Wind Pressure Humidity
    00:00 -21°C° 0 mm 6 mps 760 mmHg 75%
    01:00 -21°C° 0 mm 6 mps 760 mmHg 76%
    02:00 -21°C° 0 mm 6 mps 759 mmHg 77%
    03:00 -21°C° 0 mm 7 mps 759 mmHg 78%
    04:00 -20°C° 0 mm 7 mps 758 mmHg 79%
    05:00 -20°C° 0 mm 7 mps 758 mmHg 83%
    06:00 -19°C° 0 mm 7 mps 757 mmHg 86%
    07:00 -18°C° 0 mm 7 mps 757 mmHg 89%
    08:00 -17°C° 0 mm 7 mps 756 mmHg 89%
    09:00 -17°C° 0 mm 7 mps 756 mmHg 89%
    10:00 -16°C° 0 mm 8 mps 756 mmHg 90%
    11:00 -15°C° 0 mm 8 mps 756 mmHg 89%
    12:00 -13°C° 0 mm 8 mps 755 mmHg 89%
    13:00 -13°C° 0 mm 8 mps 755 mmHg 89%
    14:00 -12°C° 0 mm 8 mps 754 mmHg 89%
    15:00 -12°C° 0 mm 7 mps 754 mmHg 89%
    16:00 -12°C° 0 mm 7 mps 754 mmHg 88%
    17:00 -13°C° 0 mm 7 mps 754 mmHg 89%
    18:00 -13°C° 0 mm 7 mps 754 mmHg 89%
    19:00 -14°C° 0 mm 7 mps 754 mmHg 89%
    20:00 -14°C° 0 mm 7 mps 754 mmHg 89%
    21:00 -14°C° 0 mm 7 mps 754 mmHg 90%
    22:00 -14°C° 0 mm 7 mps 754 mmHg 90%
    23:00 -15°C° 0 mm 7 mps 754 mmHg 90%
    Show more